Panama City Tyndall AFB, FL

7:45 PM CDT on April 25, 2017 (GMT -0500)
Tyndall Air Force Base

Weather History for KPAM - February, 2014

Change the Weather History Date:

Wednesday, February 12, 2014

  Actual Average Record
Temperature  
Mean Temperature 47 °F -  
Max Temperature 53 °F 63 °F 75 °F (2017)
Min Temperature 40 °F 46 °F 28 °F (2012)
Degree Days  
Heating Degree Days 18    
Moisture  
Dew Point 36 °F    
Average Humidity 61    
Maximum Humidity 66    
Minimum Humidity 57    
Precipitation  
Precipitation 1.31 in - - ()
Sea Level Pressure  
Sea Level Pressure 29.87 in    
Wind  
Wind Speed 10 mph (NE)    
Max Wind Speed 23 mph    
Max Gust Speed 33 mph    
Visibility 7 miles    
Events Rain , Thunderstorm    
Averages and records for this station are not official NWS values.
T = Trace of Precipitation, MM = Missing Value Source: NWS Daily Summary

Daily Weather History Graph

Daily Weather History Graph

Search for Another Location

Airport or City:

Trip Planner

Search our weather history database for the weather conditions in past years. The results will help you decide how hot, cold, wet, or windy it might be!

Date:

Astronomy

Feb. 12, 2014 Rise Set
Actual Time 6:24 AM CST 5:28 PM CST
Civil Twilight 6:00 AM CST 5:53 PM CST
Nautical Twilight 5:32 AM CST 6:21 PM CST
Astronomical Twilight 5:04 AM CST 6:49 PM CST
Moon 3:44 PM CST (2/12) 4:37 AM CST (2/12)
Length of Visible Light 11h 53m
Length of Day
11h 03m
Waxing Gibbous, 95% of the Moon is Illuminated
Feb 12
Waxing Gibbous
Feb 14
Full
Feb 22
Last Quarter
Mar 1
New
Mar 8
First Quarter

Hourly Weather History & Observations

Time (CST) Temp. Windchill Dew Point Humidity Pressure Visibility Wind Dir Wind Speed Gust Speed Precip Events Conditions
12:03 AM 51.8 °F - 39.2 °F 62% 30.04 in 5.0 mi Variable 5.8 mph - N/A Rain Heavy Rain
12:38 AM 51.8 °F - 39.2 °F 62% 30.00 in 8.0 mi East 9.2 mph - N/A Rain Light Rain
12:43 AM 51.8 °F - 39.2 °F 62% 30.01 in 7.0 mi ENE 9.2 mph - N/A Rain Light Rain
12:48 AM 51.8 °F - 39.2 °F 62% 30.01 in 6.0 mi East 8.1 mph - N/A Rain Light Rain
12:53 AM 51.8 °F - 39.2 °F 62% 30.00 in 4.0 mi ENE 9.2 mph - N/A Rain Rain
12:58 AM 51.4 °F - 39.0 °F 63% 30.02 in 4.0 mi ENE 8.1 mph - 0.13 in Rain Light Rain
1:03 AM 51.8 °F - 39.2 °F 62% 30.00 in 5.0 mi East 9.2 mph - N/A Rain Light Rain
1:08 AM 51.8 °F - 39.2 °F 62% 30.00 in 4.0 mi East 9.2 mph - N/A Rain Light Rain
1:13 AM 51.8 °F - 39.2 °F 62% 29.99 in 2.5 mi East 11.5 mph - N/A Rain Light Rain
1:18 AM 51.8 °F - 39.2 °F 62% 29.98 in 3.0 mi East 10.4 mph - N/A Rain Light Rain
1:23 AM 51.8 °F - 39.2 °F 62% 29.99 in 5.0 mi East 9.2 mph - N/A Rain Light Rain
1:28 AM 51.8 °F - 39.2 °F 62% 29.98 in 8.0 mi East 8.1 mph - N/A Rain Light Rain
1:33 AM 51.8 °F - 39.2 °F 62% 29.99 in 9.0 mi East 8.1 mph - N/A Rain Light Rain
1:36 AM 51.8 °F - 39.2 °F 62% 29.98 in 10.0 mi East 6.9 mph - N/A   Overcast
1:41 AM 51.8 °F - 39.2 °F 62% 29.98 in 10.0 mi East 10.4 mph - N/A   Overcast
1:46 AM 51.8 °F - 39.2 °F 62% 29.98 in 10.0 mi East 8.1 mph - N/A   Overcast
1:58 AM 51.3 °F - 38.5 °F 62% 29.99 in 10.0 mi East 6.9 mph - 0.11 in   Overcast
2:08 AM 51.8 °F - 39.2 °F 62% 29.97 in 8.0 mi East 9.2 mph - N/A   Overcast
2:23 AM 51.8 °F - 39.2 °F 62% 29.96 in 10.0 mi East 8.1 mph - N/A   Overcast
2:38 AM 51.8 °F - 39.2 °F 62% 29.96 in 10.0 mi East 8.1 mph - N/A   Overcast
2:58 AM 51.4 °F - 39.0 °F 63% 29.97 in 10.0 mi East 8.1 mph - N/A   Overcast
3:58 AM 51.3 °F - 38.5 °F 62% 29.96 in 10.0 mi East 6.9 mph - N/A   Overcast
4:33 AM 51.8 °F - 39.2 °F 62% 29.92 in 10.0 mi East 9.2 mph - N/A   Overcast
4:58 AM 51.6 °F - 38.8 °F 62% 29.92 in 10.0 mi East 13.8 mph 19.6 mph N/A   Overcast
5:58 AM 52.5 °F - 39.9 °F 62% 29.92 in 10.0 mi East 10.4 mph 18.4 mph N/A   Overcast
6:03 AM 53.6 °F - 39.2 °F 58% 29.91 in 10.0 mi East 9.2 mph - N/A   Overcast
6:33 AM 53.6 °F - 41.0 °F 62% 29.91 in 10.0 mi NE 8.1 mph - N/A   Overcast
6:38 AM 53.6 °F - 41.0 °F 62% 29.92 in 3.0 mi NE 12.7 mph - N/A   Overcast
6:48 AM 51.8 °F - 39.2 °F 62% 29.93 in 2.0 mi NNE 16.1 mph 21.9 mph N/A Rain Light Rain
6:58 AM 52.0 °F - 39.6 °F 63% 29.94 in 2.0 mi NE 13.8 mph 23.0 mph N/A Rain Light Rain
7:01 AM 51.8 °F - 39.2 °F 62% 29.92 in 1.0 mi NE 15.0 mph 23.0 mph N/A Rain Light Rain
7:06 AM 51.8 °F - 39.2 °F 62% 29.93 in 3.0 mi NE 13.8 mph 21.9 mph N/A Rain Light Rain
7:11 AM 50.0 °F - 39.2 °F 66% 29.95 in 1.0 mi NNE 15.0 mph 21.9 mph N/A Rain Rain Showers
7:13 AM 50.0 °F - 37.4 °F 62% 29.95 in 0.5 mi North 21.9 mph 31.1 mph N/A Rain Heavy Rain Showers
7:23 AM 50.0 °F - 37.4 °F 62% 29.97 in 0.2 mi NNE 16.1 mph 31.1 mph N/A Rain , Thunderstorm Heavy Thunderstorms and Rain
7:29 AM 48.2 °F - 35.6 °F 62% 29.99 in 0.5 mi NNE 12.7 mph 25.3 mph N/A Rain , Thunderstorm Heavy Thunderstorms and Rain
7:36 AM 48.2 °F - 35.6 °F 62% 29.97 in 1.5 mi North 20.7 mph 31.1 mph N/A Rain , Thunderstorm Heavy Thunderstorms and Rain
7:40 AM 46.4 °F 38.3 °F 33.8 °F 62% 30.01 in 1.5 mi North 23.0 mph 32.2 mph N/A Rain , Thunderstorm Heavy Thunderstorms and Rain
7:45 AM 46.4 °F 38.5 °F 33.8 °F 62% 30.04 in 1.0 mi North 21.9 mph 32.2 mph N/A Rain , Thunderstorm Heavy Thunderstorms and Rain
7:57 AM 44.8 °F 37.7 °F 32.4 °F 62% 30.08 in 1.0 mi North 16.1 mph 33.4 mph 0.49 in Rain , Thunderstorm Heavy Thunderstorms and Rain
8:12 AM 42.8 °F 35.1 °F 32.0 °F 66% 30.03 in 1.5 mi NE 16.1 mph 26.5 mph N/A Rain , Thunderstorm Heavy Thunderstorms and Rain
8:47 AM 42.8 °F 35.1 °F 30.2 °F 61% 30.00 in 3.0 mi ENE 16.1 mph 25.3 mph N/A Rain , Thunderstorm Thunderstorms and Rain
8:57 AM 42.8 °F 35.4 °F 30.2 °F 61% 30.00 in 4.0 mi ENE 15.0 mph 20.7 mph 0.31 in Rain Rain
9:57 AM 43.2 °F 35.6 °F 30.4 °F 61% 29.93 in 4.0 mi East 16.1 mph 27.6 mph 0.13 in Rain Light Rain
10:57 AM 45.9 °F 41.7 °F 32.4 °F 59% 29.91 in 5.0 mi East 8.1 mph 19.6 mph 0.01 in   Overcast
11:21 AM 46.4 °F 41.5 °F 32.0 °F 57% 29.88 in 4.0 mi East 10.4 mph - N/A Rain Light Rain
11:59 AM 48.2 °F - 33.8 °F 58% 29.86 in 7.0 mi East 11.5 mph - N/A   Overcast
12:21 PM 48.2 °F - 35.6 °F 62% 29.83 in 4.0 mi East 10.4 mph - N/A Rain Light Rain
12:57 PM 49.8 °F - 36.7 °F 61% 29.80 in 5.0 mi ESE 10.4 mph - 0.00 in Rain Light Rain
1:57 PM 51.8 °F - 38.7 °F 61% 29.76 in 4.0 mi ESE 11.5 mph - 0.01 in Rain Light Rain
2:57 PM 53.6 °F - 41.0 °F 62% 29.75 in 2.0 mi East 8.1 mph - 0.00 in Rain Light Rain
3:16 PM 53.6 °F - 41.0 °F 62% 29.74 in 2.0 mi ENE 5.8 mph - N/A Rain Rain
3:37 PM 53.6 °F - 41.0 °F 62% 29.73 in 5.0 mi ENE 4.6 mph - N/A Rain Light Rain
3:58 PM 53.6 °F - 41.0 °F 62% 29.74 in 3.0 mi Calm Calm - 0.02 in Rain Light Rain Showers
4:03 PM 53.6 °F - 41.0 °F 62% 29.73 in 5.0 mi NNE 3.5 mph - N/A Rain Light Rain
4:09 PM 53.6 °F - 41.0 °F 62% 29.73 in 10.0 mi NE 6.9 mph - N/A   Overcast
4:24 PM 53.6 °F - 41.0 °F 62% 29.73 in 7.0 mi NE 4.6 mph - N/A Rain Light Rain
4:34 PM 53.6 °F - 39.2 °F 58% 29.72 in 5.0 mi NE 4.6 mph - N/A Rain Light Rain
4:39 PM 53.6 °F - 39.2 °F 58% 29.72 in 3.0 mi ENE 6.9 mph - N/A Rain Light Rain
4:44 PM 53.6 °F - 39.2 °F 58% 29.72 in 1.8 mi ENE 6.9 mph - N/A Rain Light Rain
4:54 PM 53.6 °F - 39.2 °F 58% 29.71 in 2.5 mi NNE 8.1 mph - N/A Rain Light Rain
4:58 PM 52.9 °F - 39.9 °F 61% 29.72 in 2.5 mi NNE 8.1 mph - 0.04 in Rain Light Rain
5:03 PM 51.8 °F - 39.2 °F 62% 29.71 in 3.0 mi NE 6.9 mph - N/A Rain Rain
5:28 PM 51.8 °F - 39.2 °F 62% 29.73 in 6.0 mi North 10.4 mph - N/A Rain Light Rain
5:37 PM 51.8 °F - 39.2 °F 62% 29.73 in 10.0 mi North 9.2 mph - N/A   Overcast
5:57 PM 50.0 °F - 37.4 °F 62% 29.72 in 10.0 mi NNE 12.7 mph - N/A   Overcast
5:58 PM 50.5 °F - 37.9 °F 62% 29.73 in 10.0 mi NNE 11.5 mph - 0.06 in   Overcast
6:08 PM 50.0 °F - 37.4 °F 62% 29.73 in 10.0 mi North 8.1 mph - N/A   Overcast
6:13 PM 50.0 °F - 37.4 °F 62% 29.74 in 10.0 mi North 9.2 mph - N/A   Overcast
6:18 PM 50.0 °F - 37.4 °F 62% 29.74 in 10.0 mi NNE 10.4 mph - N/A   Overcast
6:33 PM 48.2 °F - 35.6 °F 62% 29.73 in 10.0 mi NNE 11.5 mph 16.1 mph N/A   Overcast
6:58 PM 48.7 °F - 36.0 °F 61% 29.75 in 10.0 mi North 6.9 mph - N/A   Overcast
7:03 PM 48.2 °F - 35.6 °F 62% 29.74 in 10.0 mi North 11.5 mph - N/A   Overcast
7:23 PM 46.4 °F 40.4 °F 33.8 °F 62% 29.75 in 10.0 mi North 13.8 mph 20.7 mph N/A   Overcast
7:28 PM 46.4 °F 41.5 °F 33.8 °F 62% 29.75 in 10.0 mi North 10.4 mph 19.6 mph N/A   Overcast
7:43 PM 46.4 °F 40.7 °F 32.0 °F 57% 29.77 in 10.0 mi North 12.7 mph 20.7 mph N/A   Overcast
7:58 PM 45.1 °F 38.8 °F 32.2 °F 60% 29.78 in 10.0 mi NNW 13.8 mph 20.7 mph N/A   Overcast
8:03 PM 44.6 °F 39.2 °F 32.0 °F 61% 29.77 in 10.0 mi North 10.4 mph 19.6 mph N/A   Overcast
8:33 PM 44.6 °F 38.4 °F 32.0 °F 61% 29.79 in 10.0 mi North 12.7 mph - N/A   Overcast
8:48 PM 44.6 °F 39.2 °F 32.0 °F 61% 29.79 in 10.0 mi NNW 10.4 mph - N/A   Overcast
8:58 PM 44.2 °F 39.2 °F 30.9 °F 60% 29.80 in 9.0 mi NNW 9.2 mph - N/A   Overcast
9:03 PM 44.6 °F 39.2 °F 32.0 °F 61% 29.79 in 8.0 mi NNW 10.4 mph - N/A   Overcast
9:09 PM 44.6 °F 38.1 °F 32.0 °F 61% 29.79 in 10.0 mi North 13.8 mph 18.4 mph N/A   Light Drizzle
9:29 PM 42.8 °F 36.6 °F 30.2 °F 61% 29.80 in 10.0 mi North 11.5 mph - N/A   Light Drizzle
9:31 PM 42.8 °F 37.5 °F 30.2 °F 61% 29.80 in 10.0 mi North 9.2 mph - N/A   Overcast
9:58 PM 42.3 °F 36.3 °F 29.5 °F 61% 29.81 in 10.0 mi NNW 10.4 mph - 0.00 in   Overcast
10:33 PM 42.8 °F 36.2 °F 28.4 °F 57% 29.82 in 10.0 mi NW 12.7 mph - N/A   Overcast
10:53 PM 41.0 °F 35.8 °F 28.4 °F 61% 29.82 in 9.0 mi North 8.1 mph - N/A   Overcast
10:58 PM 41.4 °F 36.2 °F 28.0 °F 59% 29.83 in 10.0 mi NNW 8.1 mph - 0.00 in   Overcast
11:03 PM 41.0 °F 34.3 °F 28.4 °F 61% 29.82 in 10.0 mi NW 11.5 mph - N/A   Overcast
11:07 PM 41.0 °F 34.3 °F 28.4 °F 61% 29.82 in 10.0 mi NW 11.5 mph - N/A   Light Drizzle
11:17 PM 41.0 °F 33.9 °F 28.4 °F 61% 29.83 in 10.0 mi NNW 12.7 mph - N/A   Overcast
11:27 PM 41.0 °F 34.7 °F 28.4 °F 61% 29.82 in 10.0 mi NNW 10.4 mph - N/A   Overcast
11:32 PM 41.0 °F 35.8 °F 28.4 °F 61% 29.82 in 10.0 mi North 8.1 mph - N/A   Overcast
11:58 PM 40.6 °F 33.4 °F 27.1 °F 59% 29.83 in 10.0 mi NNW 12.7 mph - 0.00 in   Overcast